TJS-19

Last updated on Mon Oct 20 2025 00:02:51 GMT+0000 (Coordinated Universal Time)

1 63924U 25097A 25292.74233935 -.00000283 00000+0 00000+0 0 9995 2 63924 3.7140 314.1200 0002941 272.0531 210.7770 1.00273095 1730
UTC large
Height (km)
Speed (km/s)
/
Latitude / Longitude
Inclination (degrees)
Orbital Period (minutes)
Azimuth
Elevation
Range (km)
Doppler Factor

Next 0 passes for location: London (51.5072 / 0.1276)

Sorry there are no passes over London.